Wind_Speed
48 47 48 49 48 48 49 49 50 49 50 50 50 50 50 50 50 50 50 50 50 50 50 49 48 48 48 47 47 47 47 46 45 44 43 42 41 41 41 40 39 38 36
48 47 48 48 48 48 48 48 48 49 49 50 50 51 50 50 50 50 50 50 50 50 49 48 47 47 47 46 46 46 45 44 43 42 41 41 40 40 39 38 37 36 34
47 47 47 47 47 48 48 49 49 49 49 50 50 50 50 50 49 49 48 48 48 48 47 47 46 45 45 44 44 44 43 43 42 41 41 40 39 38 38 37 36 34 33
47 47 48 48 48 48 48 48 48 48 48 48 48 48 48 48 47 47 46 45 45 46 46 45 45 44 43 42 42 42 42 41 41 40 39 38 38 38 37 36 34 32 31
47 48 48 48 48 48 48 48 48 48 47 47 47 46 46 45 44 44 44 44 44 44 44 44 43 42 41 41 41 41 40 40 39 38 37 37 37 36 35 33 32 31 30
45 46 47 47 47 47 47 47 47 47 47 46 45 45 45 44 44 43 43 43 42 42 42 41 40 40 40 40 40 40 40 39 38 37 36 35 34 33 32 32 31 29 28
44 44 44 44 45 45 46 46 46 46 46 45 45 45 44 44 43 43 42 42 42 41 40 40 40 40 40 40 39 39 38 37 36 35 34 33 32 32 31 30 29 28 28
41 42 43 43 43 43 42 42 43 44 43 43 43 43 43 42 42 42 41 41 41 40 40 40 40 39 39 38 37 37 35 34 34 33 32 31 31 30 29 28 28 28 28
39 40 41 41 42 42 41 41 40 40 41 41 41 41 41 41 41 41 40 39 39 39 39 39 38 38 37 36 35 34 33 32 31 31 30 30 29 29 28 28 27 27 27
38 38 39 40 40 40 41 40 39 39 39 39 39 39 39 39 39 38 38 38 38 38 37 37 37 36 35 34 33 32 31 31 31 30 30 29 28 28 28 27 27 27 27
37 37 38 39 39 39 39 39 39 38 38 37 37 37 36 36 37 37 37 37 37 37 36 36 35 34 33 32 32 31 31 30 30 29 28 28 27 27 27 27 27 27 27
34 36 36 37 37 38 38 38 38 37 36 36 36 36 35 35 36 36 36 36 36 36 35 35 34 33 33 32 32 31 30 29 29 28 28 27 27 27 27 27 27 27 27
33 34 35 35 35 36 36 36 36 36 36 36 35 35 34 34 34 34 34 35 34 34 34 34 33 33 32 32 31 30 30 29 28 28 28 28 27 27 27 27 27 27 27
30 31 32 33 33 33 34 34 34 35 35 34 34 34 34 34 33 33 33 33 33 33 33 33 33 33 32 31 31 30 30 29 29 29 29 28 28 28 28 28 28 28 28
28 28 28 29 29 30 31 32 31 31 32 32 32 33 33 33 33 33 33 33 33 32 32 32 32 32 31 31 30 30 30 29 29 29 29 29 29 29 29 29 29 29 29
27 27 27 28 28 28 29 29 30 30 31 31 31 32 32 32 32 32 32 32 32 32 31 31 31 30 30 30 30 30 30 30 30 30 30 30 30 30 30 30 30 30 30
25 26 26 27 27 27 28 28 29 29 30 31 31 31 31 31 31 31 31 31 31 31 31 31 30 30 30 30 30 30 30 30 30 31 31 31 31 31 31 31 31 32 32
24 24 25 26 27 28 29 29 29 30 30 31 31 31 31 31 31 31 31 31 30 30 30 30 30 30 31 31 31 31 31 31 31 31 32 32 32 32 32 33 33 33 33
24 24 25 26 27 28 28 29 29 30 30 30 31 31 32 32 32 32 31 31 31 31 31 31 31 31 32 32 32 32 32 32 32 32 33 33 33 33 34 34 34 34 34
24 24 25 25 26 27 28 28 29 29 30 31 31 32 32 32 31 32 32 32 32 32 32 32 33 33 33 33 33 33 33 33 33 33 34 34 34 34 35 35 35 35 35
24 24 25 26 27 27 28 28 29 29 30 31 31 32 32 32 32 32 33 33 33 32 32 32 33 33 33 33 33 33 33 34 34 35 35 35 35 35 36 36 36 36 37
24 24 25 26 26 27 28 29 29 30 30 31 31 32 32 32 32 32 33 33 33 33 32 32 33 33 34 34 34 34 34 34 35 35 36 36 36 36 37 37 38 38 38
25 25 26 26 26 27 28 28 29 29 30 30 31 31 31 32 32 32 33 33 33 33 33 33 33 34 34 35 35 35 35 35 36 36 36 36 36 37 37 38 39 39 40
25 26 26 26 27 28 28 29 29 29 29 30 30 31 31 32 32 32 32 32 33 33 33 34 34 34 35 35 35 36 36 36 36 37 37 37 38 38 39 39 40 41 41
27 27 27 27 28 28 29 29 29 30 30 30 31 31 31 32 33 33 33 33 33 33 33 34 34 34 35 35 35 36 36 37 37 37 37 38 38 38 39 40 41 41 42
28 28 28 28 28 29 29 29 29 29 30 30 31 31 31 32 32 32 32 32 32 33 33 33 34 34 34 35 35 35 36 36 37 37 38 38 39 39 40 40 41 41 42
Wind_Direction
256 256 257 258 258 259 260 262 262 263 264 265 266 268 270 271 273 274 274 275 276 277 278 280 281 281 282 283 284 285 286 286 286 286 285 285 285 286 286 286 286 285 285
257 257 257 258 258 259 259 261 262 264 265 266 267 268 270 272 273 274 275 275 276 277 278 280 280 281 282 283 284 285 285 286 286 286 286 286 286 285 285 285 285 284 284
257 257 257 257 257 259 260 261 262 265 265 266 268 269 270 271 273 274 275 276 276 277 279 280 280 281 282 283 284 284 285 286 286 286 286 286 285 284 284 284 283 282 282
255 257 257 257 258 259 260 261 263 265 266 266 268 268 270 271 272 273 274 275 276 277 278 278 279 280 282 283 284 284 285 285 286 285 284 284 284 284 283 282 281 280 279
255 256 257 257 259 260 261 262 263 265 266 267 267 268 270 270 271 272 274 275 275 276 277 278 279 281 283 284 285 285 285 285 285 284 283 283 282 282 281 280 279 279 277
256 256 257 258 259 260 262 263 264 265 266 267 267 268 269 270 272 273 274 275 276 276 278 280 281 282 284 285 286 285 285 284 284 283 282 282 281 281 280 279 278 277 274
257 257 258 259 260 261 262 263 264 265 265 266 266 268 269 270 272 273 275 275 276 277 279 280 282 283 284 285 285 285 285 284 283 282 281 280 279 279 279 278 276 274 272
258 258 258 259 260 261 263 264 264 264 264 265 266 268 268 270 271 273 274 276 277 278 279 280 281 282 283 284 284 283 283 282 281 280 279 279 278 279 279 277 274 272 272
259 259 259 259 260 261 262 264 263 263 264 265 266 268 268 269 270 272 275 276 276 277 278 279 280 281 282 282 282 282 281 281 280 279 278 279 279 278 277 275 273 273 272
259 258 259 260 260 261 261 262 263 264 265 266 266 268 268 270 271 272 273 275 276 277 277 278 279 280 280 281 280 280 280 279 279 279 278 278 278 276 275 275 274 273 272
261 260 261 261 261 261 261 261 262 263 265 265 266 267 268 269 271 272 273 274 275 276 276 277 277 278 279 279 278 278 278 278 278 277 277 276 275 275 275 274 274 274 273
265 263 262 262 262 262 261 261 261 262 263 264 264 266 268 270 271 273 273 274 275 275 275 276 276 277 277 277 277 276 277 276 275 275 274 274 274 274 274 274 273 273 272
266 264 262 262 262 261 260 260 260 261 262 263 264 265 266 268 271 273 273 273 275 275 275 275 275 275 276 276 275 274 275 274 273 273 272 273 274 273 273 274 274 273 272
267 265 262 261 260 258 257 260 260 260 260 262 263 264 266 268 270 272 273 274 274 275 276 275 275 275 274 274 274 273 273 272 272 272 272 272 272 272 272 273 274 273 272
268 267 263 261 260 258 258 259 260 260 260 261 262 264 266 268 270 272 273 274 275 275 276 275 275 274 273 273 273 272 271 271 271 271 271 271 271 271 272 273 273 273 273
271 267 263 261 259 258 259 260 261 261 261 261 263 264 266 268 270 272 273 274 275 275 274 274 274 272 272 272 272 271 271 271 271 271 271 271 271 271 272 272 273 274 274
271 268 263 260 259 258 260 260 260 260 261 262 264 265 266 269 271 272 273 275 275 274 274 273 273 272 272 272 271 271 271 272 271 271 271 271 270 271 271 271 273 274 274
273 269 265 261 260 260 262 262 261 261 262 263 264 265 267 268 269 271 273 273 273 273 272 272 272 272 272 272 272 271 271 271 272 272 272 271 271 271 271 272 273 274 275
273 270 266 265 264 264 264 263 263 263 264 264 264 265 267 268 269 270 272 272 272 272 272 271 271 272 272 272 271 271 271 271 272 272 272 271 271 271 272 272 273 274 275
274 271 269 267 266 266 265 265 264 264 264 264 264 265 266 268 269 270 271 272 273 272 272 271 271 271 272 272 271 271 271 271 271 271 272 272 272 272 273 273 273 274 274
275 272 272 271 268 268 267 266 265 265 265 265 265 265 266 268 269 270 271 272 272 272 272 272 271 271 272 272 272 272 272 272 271 271 272 272 272 273 273 273 273 274 275
278 276 275 273 271 269 268 267 266 266 266 266 266 267 267 268 270 270 271 271 271 272 272 272 271 271 272 272 273 273 273 273 273 273 273 273 274 274 273 273 274 274 275
280 278 277 276 273 271 270 269 268 268 267 267 268 268 268 269 270 272 272 271 271 272 271 271 271 272 272 272 272 273 274 274 274 274 274 274 274 274 275 275 275 275 276
281 280 279 277 275 273 272 271 270 269 268 268 269 270 270 270 271 272 272 272 271 271 271 271 272 273 273 273 273 273 273 274 274 274 274 274 274 275 276 276 276 277 277
282 281 280 280 278 275 273 272 271 270 269 270 271 271 271 271 271 272 272 272 272 272 272 272 273 274 274 274 274 274 273 274 274 275 275 275 276 277 277 278 278 278 278
284 282 281 281 280 278 275 274 272 271 271 271 272 272 272 272 271 271 271 272 272 272 273 274 274 275 275 275 275 275 275 274 275 275 276 276 277 278 278 278 279 279 278
Height
5686 5689 5691 5693 5695 5696 5698 5700 5701 5702 5703 5704 5705 5705 5706 5706 5707 5707 5706 5706 5705 5705 5704 5703 5703 5702 5700 5699 5697 5696 5694 5693 5692 5691 5689 5687 5685 5683 5681 5680 5678 5677 5676
5674 5676 5679 5681 5682 5684 5686 5688 5689 5690 5691 5692 5692 5693 5694 5694 5694 5695 5695 5694 5694 5693 5692 5692 5691 5690 5688 5687 5685 5684 5683 5681 5680 5679 5678 5676 5674 5673 5671 5670 5668 5667 5666
5662 5665 5667 5669 5670 5672 5674 5676 5677 5678 5679 5679 5680 5681 5681 5682 5682 5683 5682 5682 5682 5681 5681 5680 5679 5678 5677 5676 5674 5673 5671 5670 5669 5668 5667 5665 5664 5662 5661 5660 5659 5658 5657
5650 5653 5655 5656 5658 5660 5662 5663 5665 5666 5666 5667 5668 5669 5669 5670 5670 5671 5671 5670 5670 5670 5669 5669 5668 5667 5666 5664 5663 5662 5661 5659 5658 5657 5656 5655 5653 5652 5651 5650 5649 5649 5648
5639 5641 5643 5645 5647 5649 5650 5652 5653 5654 5655 5655 5656 5657 5658 5658 5659 5659 5659 5659 5659 5659 5658 5657 5657 5656 5654 5654 5652 5651 5650 5648 5647 5646 5645 5644 5643 5642 5641 5641 5640 5640 5639
5628 5630 5631 5633 5635 5637 5638 5640 5641 5642 5643 5644 5645 5646 5647 5647 5647 5648 5648 5648 5648 5647 5647 5646 5646 5645 5644 5643 5642 5640 5639 5638 5637 5636 5635 5634 5633 5633 5632 5632 5631 5631 5631
5616 5618 5620 5622 5624 5625 5627 5628 5630 5631 5632 5633 5634 5635 5636 5636 5636 5637 5637 5637 5637 5636 5636 5636 5635 5634 5633 5632 5631 5630 5629 5627 5627 5626 5625 5625 5624 5624 5623 5623 5623 5623 5623
5605 5607 5608 5610 5612 5614 5616 5617 5618 5620 5621 5622 5623 5624 5625 5625 5626 5626 5626 5626 5626 5626 5625 5625 5624 5624 5623 5622 5620 5619 5619 5618 5617 5616 5616 5616 5615 5615 5615 5615 5615 5615 5615
5594 5596 5597 5599 5601 5603 5605 5606 5607 5609 5610 5611 5612 5613 5614 5614 5615 5615 5615 5615 5615 5615 5615 5614 5614 5613 5612 5611 5610 5610 5609 5608 5608 5607 5607 5607 5606 5606 5606 5606 5607 5607 5607
5583 5585 5586 5588 5590 5592 5594 5595 5597 5598 5599 5601 5602 5602 5603 5604 5604 5605 5605 5605 5605 5605 5604 5604 5603 5603 5602 5601 5601 5600 5600 5599 5599 5599 5598 5598 5598 5598 5598 5598 5599 5599 5599
5572 5574 5576 5577 5579 5581 5583 5584 5586 5588 5589 5590 5591 5592 5593 5593 5594 5594 5595 5595 5594 5594 5594 5593 5593 5593 5592 5592 5591 5591 5591 5590 5590 5590 5590 5590 5590 5590 5590 5590 5590 5591 5591
5562 5563 5565 5566 5568 5570 5571 5573 5575 5577 5578 5579 5581 5582 5582 5583 5584 5584 5584 5584 5584 5584 5584 5583 5583 5583 5583 5582 5582 5582 5581 5581 5581 5581 5581 5581 5582 5582 5582 5582 5582 5582 5583
5551 5552 5554 5556 5557 5559 5561 5562 5564 5566 5568 5569 5571 5572 5572 5573 5574 5574 5574 5574 5574 5574 5574 5573 5573 5573 5573 5573 5572 5572 5572 5572 5573 5573 5573 5573 5573 5574 5574 5574 5574 5574 5574
5542 5542 5543 5545 5547 5548 5550 5552 5553 5555 5557 5559 5560 5562 5563 5563 5564 5564 5564 5564 5564 5564 5564 5563 5563 5563 5563 5563 5563 5563 5563 5564 5564 5564 5564 5564 5565 5565 5565 5565 5565 5565 5565
5533 5533 5533 5535 5537 5539 5540 5542 5544 5545 5547 5549 5551 5552 5553 5554 5554 5555 5555 5555 5554 5554 5554 5554 5554 5553 5553 5554 5554 5554 5554 5554 5555 5555 5555 5556 5556 5556 5556 5556 5556 5556 5556
5525 5525 5526 5527 5528 5530 5532 5533 5534 5536 5538 5539 5541 5542 5543 5544 5544 5545 5545 5545 5545 5544 5544 5544 5544 5544 5544 5544 5544 5545 5545 5545 5545 5546 5546 5546 5546 5547 5547 5547 5547 5547 5547
5518 5518 5518 5519 5520 5522 5523 5524 5526 5527 5528 5530 5531 5532 5533 5534 5535 5535 5535 5535 5535 5535 5535 5534 5534 5535 5535 5535 5535 5535 5535 5535 5536 5536 5536 5536 5537 5537 5537 5537 5537 5537 5537
5511 5511 5511 5511 5512 5514 5515 5516 5517 5518 5519 5520 5521 5522 5523 5524 5525 5525 5525 5525 5525 5525 5525 5525 5525 5525 5525 5525 5525 5525 5525 5526 5526 5526 5526 5526 5526 5526 5527 5527 5527 5526 5526
5504 5504 5504 5504 5505 5505 5506 5507 5508 5509 5510 5511 5512 5513 5514 5514 5515 5515 5515 5515 5515 5515 5515 5515 5515 5515 5515 5515 5515 5515 5515 5515 5515 5515 5515 5515 5515 5515 5516 5516 5516 5515 5515
5497 5497 5496 5497 5497 5497 5498 5498 5499 5500 5500 5501 5502 5503 5504 5504 5505 5505 5505 5505 5505 5505 5504 5505 5505 5505 5505 5505 5505 5505 5505 5505 5504 5504 5504 5504 5504 5504 5504 5504 5504 5504 5503
5489 5489 5489 5489 5489 5489 5489 5490 5490 5490 5491 5492 5492 5493 5494 5494 5494 5494 5494 5494 5494 5494 5494 5494 5494 5494 5494 5494 5494 5494 5494 5494 5493 5493 5493 5493 5493 5493 5493 5492 5492 5492 5491
5482 5482 5481 5481 5480 5480 5480 5481 5481 5481 5482 5482 5483 5483 5483 5484 5484 5484 5484 5483 5483 5483 5483 5483 5483 5483 5483 5483 5483 5483 5482 5482 5482 5482 5481 5481 5481 5481 5480 5480 5480 5479 5479
5474 5473 5473 5472 5472 5471 5472 5472 5472 5472 5472 5472 5472 5473 5473 5473 5473 5473 5473 5473 5472 5472 5472 5472 5472 5472 5472 5471 5471 5471 5471 5471 5470 5470 5470 5469 5469 5469 5468 5467 5467 5466 5465
5466 5465 5464 5463 5463 5462 5462 5462 5462 5462 5462 5462 5462 5462 5462 5462 5462 5462 5462 5462 5461 5461 5461 5461 5461 5460 5460 5460 5459 5459 5459 5458 5458 5458 5457 5457 5456 5456 5455 5454 5454 5453 5451
5457 5456 5455 5454 5453 5453 5452 5452 5452 5452 5452 5452 5452 5452 5452 5452 5451 5451 5451 5451 5451 5450 5450 5450 5449 5449 5448 5448 5447 5447 5446 5446 5446 5445 5444 5444 5443 5443 5442 5441 5440 5438 5437
5448 5447 5446 5445 5444 5443 5442 5442 5441 5441 5441 5441 5441 5441 5441 5440 5440 5440 5440 5440 5439 5439 5439 5438 5438 5437 5436 5436 5435 5434 5434 5433 5433 5432 5432 5431 5430 5429 5428 5427 5425 5424 5423